TimeCST,TemperatureF,Dew PointF,Humidity,Sea Level PressureIn,VisibilityMPH,Wind Direction,Wind SpeedMPH,Gust SpeedMPH,PrecipitationIn,Events,Conditions,WindDirDegrees,DateUTC
12:53 AM,50.0,42.1,74,30.02,10.0,SSE,9.2,-,N/A,,Clear,160,2012-11-30 06:53:00
1:53 AM,50.0,42.1,74,30.02,10.0,South,4.6,-,N/A,,Clear,170,2012-11-30 07:53:00
2:53 AM,52.0,37.9,59,30.01,10.0,SSW,11.5,-,N/A,,Clear,210,2012-11-30 08:53:00
3:53 AM,51.1,35.1,54,30.01,10.0,SSW,11.5,-,N/A,,Clear,210,2012-11-30 09:53:00
4:53 AM,53.1,34.0,48,30.00,10.0,SW,13.8,-,N/A,,Clear,220,2012-11-30 10:53:00
5:53 AM,54.0,34.0,47,30.01,10.0,SW,12.7,-,N/A,,Clear,220,2012-11-30 11:53:00
6:53 AM,54.0,34.0,47,30.03,10.0,SW,12.7,-,N/A,,Clear,230,2012-11-30 12:53:00
7:53 AM,54.0,34.0,47,30.05,10.0,SW,11.5,-,N/A,,Clear,220,2012-11-30 13:53:00
8:53 AM,57.9,36.0,44,30.07,10.0,WSW,8.1,-,N/A,,Clear,250,2012-11-30 14:53:00
9:53 AM,68.0,37.0,32,30.07,10.0,WSW,9.2,-,N/A,,Clear,240,2012-11-30 15:53:00
11:53 AM,75.9,30.0,19,30.04,10.0,Calm,Calm,-,N/A,,Clear,0,2012-11-30 17:53:00
12:53 PM,78.1,27.0,15,30.00,10.0,Variable,3.5,-,N/A,,Clear,0,2012-11-30 18:53:00
1:53 PM,81.0,25.0,13,29.96,10.0,WSW,9.2,-,N/A,,Clear,240,2012-11-30 19:53:00
2:53 PM,81.0,21.9,11,29.94,10.0,Calm,Calm,-,N/A,,Clear,0,2012-11-30 20:53:00
3:53 PM,81.0,21.9,11,29.93,10.0,Calm,Calm,-,N/A,,Clear,0,2012-11-30 21:53:00
4:53 PM,79.0,24.1,13,29.92,10.0,Calm,Calm,-,N/A,,Clear,0,2012-11-30 22:53:00
5:53 PM,73.9,39.0,28,29.94,10.0,ESE,6.9,-,N/A,,Clear,110,2012-11-30 23:53:00
6:53 PM,66.0,43.0,43,29.96,10.0,ESE,4.6,-,N/A,,Clear,120,2012-12-01 00:53:00
7:53 PM,61.0,43.0,52,29.97,10.0,SSE,9.2,-,N/A,,Clear,160,2012-12-01 01:53:00
8:53 PM,59.0,41.0,51,29.97,10.0,South,6.9,-,N/A,,Clear,180,2012-12-01 02:53:00
9:53 PM,59.0,28.9,32,29.97,10.0,SSW,11.5,-,N/A,,Clear,200,2012-12-01 03:53:00
10:53 PM,62.1,34.0,35,29.96,10.0,SSW,12.7,-,N/A,,Clear,210,2012-12-01 04:53:00
11:53 PM,59.0,35.1,41,29.96,10.0,SSW,12.7,-,N/A,,Clear,210,2012-12-01 05:53:00